Woodward, OK

5:53 PM CST on February 19, 2017 (GMT -0600)
West Woodward

Weather History for KWWR - March, 2013

Change the Weather History Date:

Saturday, March 9, 2013

  Actual Average (KGAG) Record (KGAG)
Temperature  
Mean Temperature 53 °F -  
Max Temperature 69 °F 62 °F 82 °F (1986)
Min Temperature 37 °F 31 °F 9 °F (1969)
Degree Days  
Heating Degree Days 12    
Growing Degree Days 3 (Base 50)    
Moisture  
Dew Point 43 °F    
Average Humidity 67    
Maximum Humidity 94    
Minimum Humidity 25    
Precipitation  
Precipitation 1.29 in - - ()
Sea Level Pressure  
Sea Level Pressure 29.70 in    
Wind  
Wind Speed 14 mph (SSW)    
Max Wind Speed 28 mph    
Max Gust Speed 37 mph    
Visibility 9 miles    
Events Rain , Thunderstorm    
Averages and records for this station are not official NWS values.
T = Trace of Precipitation, MM = Missing Value Source: NWS Daily Summary

Daily Weather History Graph

Daily Weather History Graph

Search for Another Location

Airport or City:

Trip Planner

Search our weather history database for the weather conditions in past years. The results will help you decide how hot, cold, wet, or windy it might be!

Date:

Astronomy

Mar. 09, 2013 Rise Set
Actual Time 6:57 AM CST 6:40 PM CST
Civil Twilight 6:31 AM CST 7:06 PM CST
Nautical Twilight 6:01 AM CST 7:36 PM CST
Astronomical Twilight 5:31 AM CST 8:06 PM CST
Moon 5:19 AM CST (3/9) 4:46 PM CST (3/9)
Length of Visible Light 12h 34m
Length of Day
11h 43m
Waning Crescent, 5% of the Moon is Illuminated
Mar 9
Waning Crescent
Mar 11
New
Mar 19
First Quarter
Mar 27
Full
Apr 2
Last Quarter

Hourly Weather History & Observations

Time (CST) Temp. Windchill Dew Point Humidity Pressure Visibility Wind Dir Wind Speed Gust Speed Precip Events Conditions
12:15 AM 55.4 °F - 53.6 °F 94% 29.84 in 5.0 mi SSE 17.3 mph 21.9 mph 0.03 in Rain , Thunderstorm Thunderstorms and Rain
12:35 AM 57.2 °F - 53.6 °F 88% 29.84 in 10.0 mi SSE 6.9 mph - 0.03 in   Light Drizzle
12:55 AM 57.2 °F - 55.4 °F 94% 29.84 in 10.0 mi South 9.2 mph - 0.04 in Rain Light Rain
1:15 AM 57.2 °F - 55.4 °F 94% 29.82 in 10.0 mi SSE 11.5 mph 16.1 mph 0.01 in Rain Light Rain
1:35 AM 59.0 °F - 55.4 °F 88% 29.81 in 10.0 mi South 13.8 mph 18.4 mph 0.01 in   Overcast
1:55 AM 59.0 °F - 55.4 °F 88% 29.81 in 10.0 mi SSE 12.7 mph - 0.01 in Rain , Thunderstorm Light Thunderstorms and Rain
2:15 AM 59.0 °F - 55.4 °F 88% 29.79 in 10.0 mi SSE 16.1 mph 20.7 mph 0.02 in Rain , Thunderstorm Rain
2:35 AM 59.0 °F - 55.4 °F 88% 29.79 in 5.0 mi South 19.6 mph 25.3 mph 0.07 in Rain , Thunderstorm Heavy Thunderstorms and Rain
2:55 AM 59.0 °F - 55.4 °F 88% 29.77 in 5.0 mi SSE 16.1 mph 21.9 mph 0.14 in Rain , Thunderstorm Rain
3:15 AM 59.0 °F - 55.4 °F 88% 29.76 in 7.0 mi SSE 19.6 mph 24.2 mph 0.05 in Rain , Thunderstorm Rain
3:35 AM 59.0 °F - 55.4 °F 88% 29.75 in 5.0 mi SSE 17.3 mph - 0.12 in Rain Heavy Rain
3:55 AM 57.2 °F - 53.6 °F 88% 29.76 in 5.0 mi SSW 12.7 mph - 0.24 in Rain Heavy Rain
4:15 AM 53.6 °F - 51.8 °F 94% 29.78 in 7.0 mi SW 16.1 mph - 0.12 in Rain Rain
4:35 AM 53.6 °F - 51.8 °F 94% 29.76 in 10.0 mi SSW 9.2 mph - 0.18 in Rain Light Rain
4:55 AM 53.6 °F - 51.8 °F 94% 29.75 in 7.0 mi South 6.9 mph - 0.23 in Rain Rain
5:15 AM 53.6 °F - 51.8 °F 94% 29.75 in 10.0 mi SSE 9.2 mph - 0.01 in Rain Rain
5:35 AM 53.6 °F - 51.8 °F 94% 29.75 in 10.0 mi SSE 10.4 mph - 0.02 in Rain Rain
5:55 AM 53.6 °F - 51.8 °F 94% 29.74 in 10.0 mi SSE 5.8 mph - 0.02 in Rain Light Rain
6:15 AM 53.6 °F - 51.8 °F 94% 29.72 in 10.0 mi SE 6.9 mph - 0.01 in Rain Rain
6:35 AM 53.6 °F - 51.8 °F 94% 29.73 in 10.0 mi SE 4.6 mph - 0.01 in Rain Rain
6:55 AM 53.6 °F - 51.8 °F 94% 29.73 in 10.0 mi Calm Calm - 0.03 in Rain Light Rain
7:15 AM 53.6 °F - 51.8 °F 94% 29.73 in 10.0 mi South 4.6 mph - 0.01 in Rain Rain
7:35 AM 55.4 °F - 51.8 °F 88% 29.72 in 10.0 mi SSW 8.1 mph - 0.01 in Rain , Thunderstorm Light Thunderstorms and Rain
7:55 AM 55.4 °F - 51.8 °F 88% 29.72 in 10.0 mi South 8.1 mph - 0.01 in Rain Light Rain
8:15 AM 55.4 °F - 51.8 °F 88% 29.72 in 7.0 mi SSW 10.4 mph - 0.03 in Rain Rain
8:35 AM 55.4 °F - 53.6 °F 94% 29.72 in 5.0 mi SW 5.8 mph - 0.08 in Rain Heavy Rain
8:55 AM 55.4 °F - 53.6 °F 94% 29.72 in 5.0 mi WSW 4.6 mph - 0.14 in Rain , Thunderstorm Rain
9:15 AM 55.4 °F - 51.8 °F 88% 29.71 in 2.0 mi SSW 11.5 mph - 0.22 in Rain Rain
9:35 AM 55.4 °F - 53.6 °F 94% 29.70 in 4.0 mi SSW 12.7 mph 18.4 mph 0.36 in Rain Heavy Rain
9:55 AM 57.2 °F - 53.6 °F 88% 29.69 in 10.0 mi SW 11.5 mph 16.1 mph 0.38 in   Overcast
10:15 AM 55.4 °F - 53.6 °F 94% 29.69 in 7.0 mi SW 6.9 mph - 0.03 in Rain Light Rain
10:35 AM 57.2 °F - 53.6 °F 88% 29.69 in 7.0 mi SW 8.1 mph - 0.05 in Rain Rain
10:55 AM 60.8 °F - 57.2 °F 88% 29.68 in 10.0 mi SSW 12.7 mph - 0.05 in   Overcast
11:15 AM 62.6 °F - 55.4 °F 77% 29.67 in 10.0 mi SSW 15.0 mph - N/A   Mostly Cloudy
11:35 AM 62.6 °F - 51.8 °F 68% 29.67 in 10.0 mi SW 15.0 mph 20.7 mph N/A   Scattered Clouds
11:55 AM 64.4 °F - 46.4 °F 52% 29.67 in 10.0 mi SW 18.4 mph 26.5 mph N/A   Clear
12:15 PM 66.2 °F - 41.0 °F 40% 29.67 in 10.0 mi SW 20.7 mph 28.8 mph N/A   Scattered Clouds
12:35 PM 68.0 °F - 37.4 °F 33% 29.65 in 10.0 mi SSW 26.5 mph 31.1 mph N/A   Clear
12:55 PM 68.0 °F - 35.6 °F 30% 29.64 in 10.0 mi SW 21.9 mph 29.9 mph N/A   Scattered Clouds
1:15 PM 69.8 °F - 35.6 °F 28% 29.63 in 10.0 mi SW 25.3 mph 31.1 mph N/A   Scattered Clouds
1:35 PM 69.8 °F - 33.8 °F 27% 29.61 in 10.0 mi SW 24.2 mph 32.2 mph N/A   Scattered Clouds
1:55 PM 69.8 °F - 32.0 °F 25% 29.60 in 10.0 mi SW 24.2 mph 33.4 mph N/A   Scattered Clouds
2:15 PM 68.0 °F - 35.6 °F 30% 29.60 in 10.0 mi SW 20.7 mph 26.5 mph N/A   Clear
2:35 PM 68.0 °F - 35.6 °F 30% 29.60 in 10.0 mi SW 24.2 mph 33.4 mph N/A   Clear
2:55 PM 68.0 °F - 35.6 °F 30% 29.60 in 10.0 mi SW 25.3 mph 36.8 mph N/A   Clear
3:15 PM 68.0 °F - 33.8 °F 28% 29.60 in 10.0 mi SW 24.2 mph 35.7 mph N/A   Clear
3:35 PM 66.2 °F - 33.8 °F 30% 29.59 in 10.0 mi SW 27.6 mph 32.2 mph N/A   Clear
3:55 PM 66.2 °F - 35.6 °F 32% 29.60 in 10.0 mi SSW 24.2 mph 29.9 mph N/A   Clear
4:15 PM 64.4 °F - 32.0 °F 30% 29.59 in 10.0 mi SSW 21.9 mph 33.4 mph N/A   Clear
4:35 PM 64.4 °F - 32.0 °F 30% 29.60 in 10.0 mi SSW 20.7 mph 31.1 mph N/A   Clear
4:55 PM 64.4 °F - 32.0 °F 30% 29.60 in 10.0 mi SW 24.2 mph 33.4 mph N/A   Clear
5:15 PM 64.4 °F - 32.0 °F 30% 29.59 in 10.0 mi SSW 20.7 mph 29.9 mph N/A   Clear
5:35 PM 62.6 °F - 32.0 °F 32% 29.60 in 10.0 mi SSW 19.6 mph 25.3 mph N/A   Clear
5:55 PM 62.6 °F - 32.0 °F 32% 29.59 in 10.0 mi SSW 19.6 mph 25.3 mph N/A   Clear
6:15 PM 60.8 °F - 32.0 °F 34% 29.59 in 10.0 mi SSW 18.4 mph - N/A   Clear
6:35 PM 60.8 °F - 30.2 °F 31% 29.61 in 10.0 mi SSW 18.4 mph 27.6 mph N/A   Clear
6:55 PM 59.0 °F - 26.6 °F 29% 29.62 in 10.0 mi SW 18.4 mph 28.8 mph N/A   Clear
7:15 PM 57.2 °F - 26.6 °F 31% 29.62 in 10.0 mi SW 18.4 mph 27.6 mph N/A   Clear
7:35 PM 55.4 °F - 24.8 °F 31% 29.62 in 10.0 mi SW 19.6 mph 23.0 mph N/A   Clear
7:55 PM 55.4 °F - 24.8 °F 31% 29.63 in 10.0 mi SW 18.4 mph 23.0 mph N/A   Clear
8:15 PM 53.6 °F - 26.6 °F 35% 29.67 in 10.0 mi West 23.0 mph 29.9 mph N/A   Clear
8:35 PM 46.4 °F 38.7 °F 35.6 °F 66% 29.69 in 10.0 mi NW 20.7 mph 28.8 mph N/A   Clear
8:55 PM 42.8 °F 34.8 °F 35.6 °F 76% 29.70 in 10.0 mi NW 17.3 mph 23.0 mph N/A   Clear
9:15 PM 42.8 °F 34.5 °F 33.8 °F 70% 29.70 in 10.0 mi NW 18.4 mph 27.6 mph N/A   Clear
9:35 PM 41.0 °F 32.8 °F 33.8 °F 76% 29.72 in 10.0 mi NW 16.1 mph 23.0 mph N/A   Clear
9:55 PM 41.0 °F 33.5 °F 33.8 °F 76% 29.73 in 10.0 mi WNW 13.8 mph 19.6 mph N/A   Clear
10:15 PM 39.2 °F 32.5 °F 33.8 °F 81% 29.73 in 10.0 mi NW 10.4 mph - N/A   Clear
10:35 PM 37.4 °F 31.4 °F 33.8 °F 87% 29.75 in 10.0 mi WNW 8.1 mph - N/A   Scattered Clouds
10:55 PM 39.2 °F 33.0 °F 33.8 °F 81% 29.74 in 10.0 mi WNW 9.2 mph - N/A   Mostly Cloudy
11:15 PM 39.2 °F 32.5 °F 33.8 °F 81% 29.75 in 10.0 mi WNW 10.4 mph - N/A   Overcast
11:35 PM 39.2 °F 31.6 °F 33.8 °F 81% 29.76 in 10.0 mi WNW 12.7 mph - N/A   Overcast
11:55 PM 39.2 °F 32.5 °F 32.0 °F 75% 29.76 in 10.0 mi WNW 10.4 mph - N/A   Overcast